Puyallup, WA
on Sunday, November 4, 2012

Sunday
Previous Day Next Day
Daily Summary
 ActualAverage (KSEA)Record (KSEA)
Temperature
Mean Temperature °F 48°F  
Max Temperature 66°F 54°F 74°F (1949)
Min Temperature 53°F 42°F 30°F (1957)
Degree Days
Heating Degree Days 6 17  
Month to date heating degree days 67  
Since 1 July heating degree days 664  
Cooling Degree Days 0 0  
Month to date cooling degree days 0  
Year to date cooling degree days 189  
Growing Degree Days10 (Base °F )  
Moisture
Dew Point 56°F   
Average Humidity 90    
Maximum Humidity 100    
Minimum Humidity 68    
Precipitation
Precipitation 0.03 in 0.20 in 1.91 in (2006)
Month to date precipitation 0.78  
Year to date precipitation 26.35  
Snow
Snow 0.00 in in T in (1973)
Month to date snowfall  
Since 1 July snowfall  
Snow Depth in   
Wind
Wind Speed 1 mph   
Max Wind Speed 8 mph   
Max Gust Speed 16 mph   
Visibility 9 miles   
Events Rain   

Key: T is trace of precipitation, MM is missing value
Source: NWS Daily Summary
Time(PST)TemperatureDew PointHumidity Pressure Visibility Wind DirectionWind SpeedGust SpeedPrecipitationEvents Conditions
12:15 AM 53.6°F 53.6°F 100% 30.20 in 4.0 miles Calm Calm - N/A   Overcast
12:35 AM 53.6°F 53.6°F 100% 30.20 in 10.0 miles Calm Calm - N/A   Mostly Cloudy
12:55 AM 53.6°F 53.6°F 100% 30.19 in 6.0 miles Calm Calm - N/A   Overcast
1:15 AM 53.6°F 53.6°F 100% 30.19 in 10.0 miles Calm Calm - N/A   Overcast
1:35 AM 53.6°F 53.6°F 100% 30.18 in 10.0 miles Calm Calm - N/A   Overcast
1:55 AM 53.6°F 53.6°F 100% 30.18 in 10.0 miles Calm Calm - N/A   Mostly Cloudy
1:15 AM 53.6°F 53.6°F 100% 30.19 in 10.0 miles Calm Calm - N/A   Mostly Cloudy
1:35 AM 53.6°F 53.6°F 100% 30.20 in 9.0 miles Calm Calm - N/A   Mostly Cloudy
1:55 AM 53.6°F 53.6°F 100% 30.20 in 10.0 miles Calm Calm - N/A   Overcast
2:15 AM 53.6°F 53.6°F 100% 30.20 in 10.0 miles Calm Calm - N/A   Overcast
2:35 AM 53.6°F 53.6°F 100% 30.19 in 5.0 miles Calm Calm - N/A   Mostly Cloudy
2:55 AM 53.6°F 53.6°F 100% 30.19 in 10.0 miles Calm Calm - N/A   Overcast
3:15 AM 53.6°F 53.6°F 100% 30.20 in 10.0 miles Calm Calm - N/A   Overcast
3:35 AM 53.6°F 53.6°F 100% 30.20 in 10.0 miles Calm Calm - N/A   Overcast
3:55 AM 53.6°F 53.6°F 100% 30.20 in 5.0 miles Calm Calm - N/A   Overcast
4:15 AM 53.6°F 53.6°F 100% 30.20 in 2.5 miles Calm Calm - N/A Rain Light Rain
4:35 AM 53.6°F 53.6°F 100% 30.20 in 3.0 miles Calm Calm - N/A   Overcast
4:55 AM 53.6°F 53.6°F 100% 30.20 in 6.0 miles Calm Calm - N/A   Overcast
5:15 AM 53.6°F 53.6°F 100% 30.21 in 9.0 miles Calm Calm - N/A   Overcast
5:35 AM 53.6°F 53.6°F 100% 30.21 in 10.0 miles Calm Calm - N/A   Overcast
5:55 AM 53.6°F 53.6°F 100% 30.21 in 10.0 miles Calm Calm - N/A   Overcast
6:15 AM 53.6°F 53.6°F 100% 30.21 in 10.0 miles Calm Calm - N/A   Overcast
6:35 AM 53.6°F 53.6°F 100% 30.20 in 10.0 miles Calm Calm - N/A   Overcast
6:55 AM 53.6°F 53.6°F 100% 30.20 in 10.0 miles Calm Calm - N/A   Overcast
7:15 AM 53.6°F 53.6°F 100% 30.20 in 10.0 miles Calm Calm - N/A   Mostly Cloudy
7:35 AM 53.6°F 53.6°F 100% 30.20 in 10.0 miles Calm Calm - N/A   Mostly Cloudy
7:55 AM 55.4°F 55.4°F 100% 30.20 in 10.0 miles Calm Calm - N/A   Mostly Cloudy
8:15 AM 55.4°F 55.4°F 100% 30.21 in 10.0 miles Calm Calm - N/A   Mostly Cloudy
8:35 AM 55.4°F 55.4°F 100% 30.22 in 10.0 miles Calm Calm - N/A   Overcast
8:55 AM 55.4°F 55.4°F 100% 30.22 in 10.0 miles Calm Calm - N/A   Mostly Cloudy
9:15 AM 57.2°F 57.2°F 100% 30.22 in 10.0 miles Calm Calm - N/A   Mostly Cloudy
9:35 AM 57.2°F 57.2°F 100% 30.23 in 10.0 miles Calm Calm - N/A   Mostly Cloudy
9:55 AM 59.0°F 57.2°F 94% 30.23 in 10.0 miles Calm Calm - N/A   Mostly Cloudy
10:15 AM 59.0°F 59.0°F 100% 30.23 in 10.0 miles Calm Calm - N/A   Overcast
10:35 AM 60.8°F 59.0°F 94% 30.24 in 10.0 miles Calm Calm - N/A   Overcast
10:55 AM 62.6°F 59.0°F 88% 30.24 in 10.0 miles Calm Calm - N/A   Mostly Cloudy
11:15 AM 62.6°F 59.0°F 88% 30.25 in 10.0 miles Calm Calm - N/A   Overcast
11:35 AM 64.4°F 59.0°F 83% 30.24 in 10.0 miles Calm Calm - N/A   Mostly Cloudy
11:55 AM 64.4°F 59.0°F 83% 30.24 in 10.0 miles Calm Calm - N/A   Overcast
12:15 PM 64.4°F 60.8°F 88% 30.24 in 10.0 miles Calm Calm - N/A   Overcast
12:35 PM 64.4°F 60.8°F 88% 30.25 in 10.0 miles Calm Calm - N/A   Overcast
12:55 PM 64.4°F 60.8°F 88% 30.25 in 10.0 miles Calm Calm - N/A   Overcast
1:15 PM 64.4°F 60.8°F 88% 30.25 in 10.0 miles Calm Calm - N/A   Overcast
1:35 PM 64.4°F 60.8°F 88% 30.24 in 10.0 miles Calm Calm - N/A   Overcast
1:55 PM 64.4°F 60.8°F 88% 30.25 in 10.0 miles Calm Calm - N/A   Overcast
2:15 PM 66.2°F 59.0°F 78% 30.26 in 10.0 miles WSW 6.9 mph - N/A   Overcast
2:35 PM 66.2°F 59.0°F 78% 30.26 in 10.0 miles SW 4.6 mph - N/A   Overcast
2:55 PM 66.2°F 59.0°F 78% 30.26 in 10.0 miles West 5.8 mph - N/A   Overcast
3:15 PM 66.2°F 57.2°F 73% 30.26 in 10.0 miles WSW 5.8 mph - N/A   Overcast
3:35 PM 66.2°F 57.2°F 73% 30.25 in 10.0 miles SW 6.9 mph - N/A   Mostly Cloudy
3:55 PM 66.2°F 57.2°F 73% 30.24 in 10.0 miles SW 5.8 mph - N/A   Clear
4:15 PM 66.2°F 57.2°F 73% 30.25 in 10.0 miles SSW 4.6 mph - N/A   Clear
4:35 PM 64.4°F 57.2°F 77% 30.23 in 10.0 miles SSW 4.6 mph - N/A   Clear
4:55 PM 64.4°F 55.4°F 73% 30.24 in 10.0 miles Calm Calm - N/A   Partly Cloudy
5:15 PM 64.4°F 55.4°F 73% 30.24 in 10.0 miles Calm Calm - N/A   Scattered Clouds
5:35 PM 66.2°F 55.4°F 68% 30.25 in 10.0 miles SSW 6.9 mph - N/A   Mostly Cloudy
5:55 PM 64.4°F 57.2°F 77% 30.26 in 9.0 miles Calm Calm - N/A Rain Light Rain
6:15 PM 62.6°F 57.2°F 82% 30.26 in 9.0 miles Calm Calm - N/A   Overcast
6:35 PM 62.6°F 57.2°F 82% 30.26 in 10.0 miles Calm Calm - N/A   Overcast
6:55 PM 62.6°F 57.2°F 82% 30.26 in 10.0 miles Calm Calm - N/A   Overcast
7:15 PM 62.6°F 57.2°F 82% 30.26 in 10.0 miles Calm Calm - N/A   Overcast
7:35 PM 64.4°F 55.4°F 73% 30.25 in 10.0 miles South 4.6 mph - N/A   Overcast
7:55 PM 64.4°F 55.4°F 73% 30.25 in 10.0 miles SSW 4.6 mph - N/A   Overcast
8:15 PM 64.4°F 55.4°F 73% 30.24 in 10.0 miles SSW 6.9 mph - N/A   Mostly Cloudy
8:35 PM 64.4°F 55.4°F 73% 30.24 in 10.0 miles SSW 5.8 mph 16.1 mph N/A   Overcast
8:55 PM 64.4°F 55.4°F 73% 30.25 in 10.0 miles SSW 8.1 mph - N/A   Overcast
9:15 PM 64.4°F 55.4°F 73% 30.26 in 10.0 miles WNW 4.6 mph - N/A   Overcast
9:35 PM 60.8°F 59.0°F 94% 30.27 in 2.0 miles Calm Calm - 0.02 in Rain Rain
9:55 PM 59.0°F 59.0°F 100% 30.27 in 2.5 miles Calm Calm - 0.02 in Rain Light Rain
10:15 PM 59.0°F 59.0°F 100% 30.28 in 4.0 miles Calm Calm - 0.01 in Rain Light Rain
10:35 PM 59.0°F 59.0°F 100% 30.27 in 5.0 miles Calm Calm - 0.01 in Rain Light Rain
10:55 PM 59.0°F 59.0°F 100% 30.28 in 7.0 miles Calm Calm - 0.01 in   Mostly Cloudy
Moon Phase
Nov. 04 Nov. 06 Nov. 13 Nov. 20 Nov. 28
Sunrise:06:57 AM (PST) Moon Rise:09:27 PM (PST)11/4
Sunset:04:47 PM (PST) Moon Set:11:48 AM (PST)11/4

Copyright © 2014 The Weather Underground, Inc.